• In Uzbekistan
  • List of Countries
  • For 7 days
  • Water Temperature
  • Satellite Maps
  • Weather Map
  • Weather Widgets
  • user-avatar
    Login

    Hourly Weather San Juan

    Today, 19 January, Friday

    Time Temperature Precipitation Wind Pressure Humidity
    00:00 +28°C° 0.1 mm 2 mps 708 mmHg 38%
    01:00 +28°C° 0.1 mm 2 mps 708 mmHg 39%
    02:00 +27°C° 0.1 mm 2 mps 708 mmHg 40%
    03:00 +27°C° 0.1 mm 2 mps 708 mmHg 40%
    04:00 +27°C° 0.1 mm 2 mps 708 mmHg 41%
    05:00 +27°C° 0 mm 2 mps 708 mmHg 39%
    06:00 +28°C° 0 mm 2 mps 708 mmHg 37%
    07:00 +28°C° 0 mm 2 mps 708 mmHg 34%
    08:00 +29°C° 0 mm 2 mps 708 mmHg 32%
    09:00 +30°C° 0 mm 2 mps 708 mmHg 29%
    10:00 +31°C° 0 mm 3 mps 708 mmHg 26%
    11:00 +33°C° 0.1 mm 3 mps 708 mmHg 25%
    12:00 +34°C° 0.1 mm 3 mps 707 mmHg 23%
    13:00 +35°C° 0.1 mm 4 mps 707 mmHg 22%
    14:00 +35°C° 0.1 mm 4 mps 706 mmHg 21%
    15:00 +35°C° 0.1 mm 4 mps 706 mmHg 21%
    16:00 +36°C° 0.1 mm 4 mps 705 mmHg 20%
    17:00 +35°C° 0.1 mm 4 mps 705 mmHg 21%
    18:00 +34°C° 0.1 mm 4 mps 705 mmHg 22%
    19:00 +34°C° 0.1 mm 3 mps 706 mmHg 24%
    20:00 +33°C° 0.3 mm 4 mps 706 mmHg 25%
    21:00 +32°C° 0.3 mm 4 mps 706 mmHg 27%
    22:00 +32°C° 0.3 mm 4 mps 707 mmHg 28%
    23:00 +30°C° 0.3 mm 4 mps 706 mmHg 30%

    Tomorrow, 20 January, Saturday

    Time Temperature Precipitation Wind Pressure Humidity
    00:00 +30°C° 0.3 mm 3 mps 706 mmHg 32%
    01:00 +29°C° 0.3 mm 3 mps 706 mmHg 34%
    02:00 +29°C° 0.3 mm 3 mps 706 mmHg 35%
    03:00 +28°C° 0.3 mm 3 mps 705 mmHg 37%
    04:00 +28°C° 0.3 mm 3 mps 705 mmHg 38%
    05:00 +28°C° 0.1 mm 3 mps 705 mmHg 38%
    06:00 +28°C° 0.1 mm 3 mps 705 mmHg 38%
    07:00 +28°C° 0.1 mm 2 mps 706 mmHg 37%
    08:00 +29°C° 0.3 mm 3 mps 705 mmHg 35%
    09:00 +30°C° 0.3 mm 3 mps 705 mmHg 33%
    10:00 +31°C° 0.3 mm 3 mps 705 mmHg 31%
    11:00 +33°C° 0.2 mm 3 mps 705 mmHg 29%
    12:00 +34°C° 0.2 mm 4 mps 704 mmHg 27%
    13:00 +34°C° 0.2 mm 4 mps 703 mmHg 25%
    14:00 +35°C° 0.1 mm 4 mps 703 mmHg 25%
    15:00 +35°C° 0.1 mm 4 mps 702 mmHg 24%
    16:00 +35°C° 0.1 mm 4 mps 702 mmHg 24%
    17:00 +35°C° 0.4 mm 4 mps 702 mmHg 26%
    18:00 +34°C° 0.4 mm 4 mps 702 mmHg 28%
    19:00 +33°C° 0.4 mm 3 mps 703 mmHg 29%
    20:00 +31°C° 0.6 mm 3 mps 703 mmHg 32%
    21:00 +32°C° 0.6 mm 4 mps 703 mmHg 35%
    22:00 +30°C° 0.6 mm 4 mps 704 mmHg 38%
    23:00 +29°C° 0.5 mm 4 mps 703 mmHg 40%

    Day after tomorrow, 21 January, Sunday

    Time Temperature Precipitation Wind Pressure Humidity
    00:00 +29°C° 0.5 mm 4 mps 703 mmHg 42%
    01:00 +28°C° 0.5 mm 4 mps 703 mmHg 44%
    02:00 +28°C° 0.1 mm 3 mps 703 mmHg 44%
    03:00 +27°C° 0.1 mm 3 mps 702 mmHg 45%
    04:00 +27°C° 0.1 mm 2 mps 702 mmHg 46%
    05:00 +28°C° 0 mm 2 mps 702 mmHg 43%
    06:00 +28°C° 0 mm 2 mps 703 mmHg 41%
    07:00 +29°C° 0 mm 2 mps 703 mmHg 38%
    08:00 +30°C° 0.1 mm 2 mps 703 mmHg 35%
    09:00 +31°C° 0.1 mm 2 mps 703 mmHg 32%
    10:00 +32°C° 0.1 mm 2 mps 703 mmHg 29%
    11:00 +34°C° 0.1 mm 2 mps 702 mmHg 27%
    12:00 +35°C° 0.1 mm 3 mps 702 mmHg 25%
    13:00 +36°C° 0.1 mm 3 mps 701 mmHg 23%
    14:00 +36°C° 0.1 mm 3 mps 701 mmHg 22%
    15:00 +36°C° 0.1 mm 3 mps 700 mmHg 22%
    16:00 +36°C° 0.1 mm 3 mps 700 mmHg 21%
    17:00 +35°C° 0.3 mm 3 mps 700 mmHg 23%
    18:00 +35°C° 0.3 mm 3 mps 701 mmHg 25%
    19:00 +34°C° 0.3 mm 2 mps 701 mmHg 26%
    20:00 +32°C° 0.5 mm 2 mps 701 mmHg 29%
    21:00 +32°C° 0.5 mm 2 mps 702 mmHg 31%
    22:00 +31°C° 0.5 mm 1 mps 702 mmHg 33%
    23:00 +30°C° 0.7 mm 1 mps 702 mmHg 35%

    22 January, Monday

    Time Temperature Precipitation Wind Pressure Humidity
    00:00 +29°C° 0.7 mm 1 mps 702 mmHg 37%
    01:00 +29°C° 0.7 mm 1 mps 701 mmHg 38%
    02:00 +28°C° 0.4 mm 1 mps 701 mmHg 39%
    03:00 +28°C° 0.4 mm 1 mps 701 mmHg 39%
    04:00 +27°C° 0.4 mm 1 mps 701 mmHg 40%
    05:00 +28°C° 0.1 mm 1 mps 701 mmHg 38%
    06:00 +28°C° 0.1 mm 1 mps 702 mmHg 35%
    07:00 +29°C° 0.1 mm 1 mps 702 mmHg 33%
    08:00 +30°C° 0 mm 1 mps 702 mmHg 30%
    09:00 +31°C° 0 mm 1 mps 702 mmHg 27%
    10:00 +32°C° 0 mm 1 mps 701 mmHg 24%
    11:00 +34°C° 0 mm 2 mps 701 mmHg 22%
    12:00 +35°C° 0 mm 2 mps 700 mmHg 20%
    13:00 +36°C° 0 mm 2 mps 700 mmHg 18%
    14:00 +36°C° 0 mm 2 mps 700 mmHg 17%
    15:00 +37°C° 0 mm 3 mps 699 mmHg 16%
    16:00 +37°C° 0 mm 3 mps 699 mmHg 16%
    17:00 +36°C° 0 mm 2 mps 699 mmHg 17%
    18:00 +36°C° 0 mm 2 mps 700 mmHg 19%
    19:00 +35°C° 0 mm 2 mps 700 mmHg 20%
    20:00 +34°C° 0.1 mm 2 mps 700 mmHg 21%
    21:00 +34°C° 0.1 mm 2 mps 701 mmHg 23%
    22:00 +32°C° 0.1 mm 1 mps 701 mmHg 24%
    23:00 +31°C° 0.2 mm 2 mps 701 mmHg 26%

    23 January, Tuesday

    Time Temperature Precipitation Wind Pressure Humidity
    00:00 +30°C° 0.2 mm 2 mps 701 mmHg 28%
    01:00 +29°C° 0.2 mm 2 mps 701 mmHg 30%
    02:00 +29°C° 0.1 mm 2 mps 701 mmHg 33%
    03:00 +28°C° 0.1 mm 2 mps 701 mmHg 37%
    04:00 +28°C° 0.1 mm 2 mps 701 mmHg 40%
    05:00 +28°C° 0 mm 2 mps 701 mmHg 37%
    06:00 +29°C° 0 mm 2 mps 702 mmHg 34%
    07:00 +30°C° 0 mm 1 mps 702 mmHg 32%
    08:00 +31°C° 0 mm 2 mps 702 mmHg 28%
    09:00 +32°C° 0 mm 2 mps 702 mmHg 24%
    10:00 +34°C° 0 mm 2 mps 702 mmHg 21%
    11:00 +35°C° 0 mm 2 mps 701 mmHg 18%
    12:00 +36°C° 0 mm 3 mps 700 mmHg 16%
    13:00 +37°C° 0 mm 3 mps 700 mmHg 14%
    14:00 +38°C° 0 mm 3 mps 700 mmHg 13%
    15:00 +38°C° 0 mm 3 mps 699 mmHg 12%
    16:00 +38°C° 0 mm 3 mps 699 mmHg 11%
    17:00 +38°C° 0 mm 3 mps 699 mmHg 12%
    18:00 +37°C° 0 mm 3 mps 700 mmHg 14%
    19:00 +36°C° 0 mm 2 mps 700 mmHg 15%
    20:00 +35°C° 0.1 mm 2 mps 700 mmHg 17%
    21:00 +35°C° 0.1 mm 2 mps 701 mmHg 19%
    22:00 +34°C° 0.1 mm 2 mps 701 mmHg 20%
    23:00 +32°C° 0 mm 2 mps 701 mmHg 24%

    24 January, Wednesday

    Time Temperature Precipitation Wind Pressure Humidity
    00:00 +31°C° 0 mm 2 mps 701 mmHg 27%
    01:00 +31°C° 0 mm 2 mps 701 mmHg 31%
    02:00 +30°C° 0 mm 3 mps 701 mmHg 34%
    03:00 +29°C° 0 mm 3 mps 702 mmHg 38%
    04:00 +29°C° 0 mm 4 mps 702 mmHg 41%
    05:00 +28°C° 0.1 mm 5 mps 702 mmHg 44%
    06:00 +28°C° 0.1 mm 6 mps 703 mmHg 47%
    07:00 +27°C° 0.1 mm 6 mps 703 mmHg 50%
    08:00 +28°C° 0 mm 6 mps 704 mmHg 46%
    09:00 +30°C° 0 mm 6 mps 704 mmHg 42%
    10:00 +32°C° 0 mm 6 mps 704 mmHg 38%
    11:00 +33°C° 0.1 mm 6 mps 704 mmHg 36%
    12:00 +34°C° 0.1 mm 6 mps 703 mmHg 34%
    13:00 +35°C° 0.1 mm 5 mps 703 mmHg 31%
    14:00 +35°C° 0.1 mm 5 mps 703 mmHg 31%
    15:00 +35°C° 0.1 mm 5 mps 703 mmHg 30%
    16:00 +35°C° 0.1 mm 6 mps 702 mmHg 30%
    17:00 +34°C° 0.2 mm 6 mps 703 mmHg 32%
    18:00 +33°C° 0.2 mm 5 mps 704 mmHg 35%
    19:00 +33°C° 0.2 mm 5 mps 704 mmHg 37%
    20:00 +32°C° 0.6 mm 5 mps 705 mmHg 40%
    21:00 +30°C° 0.6 mm 5 mps 705 mmHg 43%
    22:00 +29°C° 0.6 mm 5 mps 706 mmHg 47%
    23:00 +28°C° 0.7 mm 6 mps 706 mmHg 51%
    Show more